Retour au catalogue

STARLINK-37313

ActifCommunicationsSSO
NORAD 68790·PAYLOAD·🇺🇸 United States

Lancé Apr 19, 2026 depuis Vandenberg Space Force Base

Loading…

Prochains Passages (prochaines 24 heures)

TLE

FraisSource: CelesTrak SupGP

Époque: Sep 15, 2026, 03:07 UTC

1 68790C 26086AA  26258.13034722 -.00037261  00000+0 -11566-2 0  2586
2 68790  97.2842 294.4846 0001216  92.9290  52.9931 15.33460640    14

Suivez STARLINK-37313 en temps réel avec AllMySat

Download on the App Store